N244BD LEGE-LELL

Flight info

Callsign N244BD
Flight time 0h 21m
Altitude 2500
Route VFR
Aircraft C172/L-SGO/C

Departure

Time 2026-05-05 17:52
Airport Girona-Costa Brava Airport (LEGE)

Arrival

Time 2026-05-05 18:13
Airport Sabadell Airfield (LELL)
Time Latitude Longitude Altitude Speed Heading
2026-05-05 17:38 41.90227 2.76425 430 ft 0 kts 193°
2026-05-05 17:44 41.90226 2.76425 430 ft 2 kts 193°
2026-05-05 17:44 41.90208 2.76411 429 ft 0 kts 237°
2026-05-05 17:45 41.90162 2.76334 424 ft 15 kts 240°
2026-05-05 17:45 41.90161 2.76292 426 ft 7 kts 313°
2026-05-05 17:45 41.90281 2.76335 426 ft 27 kts 29°
2026-05-05 17:45 41.90442 2.76414 441 ft 24 kts 15°
2026-05-05 17:46 41.90601 2.76476 449 ft 23 kts 12°
2026-05-05 17:46 41.90747 2.76535 457 ft 22 kts
2026-05-05 17:46 41.90883 2.76587 464 ft 19 kts 18°
2026-05-05 17:46 41.90995 2.76626 469 ft 16 kts 16°
2026-05-05 17:47 41.91122 2.76672 475 ft 22 kts 12°
2026-05-05 17:47 41.91295 2.76747 470 ft 30 kts 14°
2026-05-05 17:47 41.91463 2.76729 465 ft 15 kts 341°
2026-05-05 17:47 41.91525 2.76736 463 ft 2 kts 321°
2026-05-05 17:49 41.91535 2.76709 463 ft 13 kts 282°
2026-05-05 17:49 41.91532 2.76615 465 ft 9 kts 240°
2026-05-05 17:49 41.91487 2.76578 466 ft 6 kts 192°
2026-05-05 17:50 41.91447 2.76563 467 ft 0 kts 198°
2026-05-05 17:51 41.91309 2.76516 473 ft 44 kts 194°
2026-05-05 17:51 41.90884 2.76362 491 ft 80 kts 194°
2026-05-05 17:51 41.90337 2.76145 629 ft 91 kts 198°
2026-05-05 17:51 41.89675 2.75885 772 ft 97 kts 198°
2026-05-05 17:52 41.89084 2.75516 1007 ft 92 kts 222°
2026-05-05 17:52 41.88634 2.74882 1157 ft 98 kts 223°
2026-05-05 17:52 41.88150 2.74226 1323 ft 100 kts 224°
2026-05-05 17:52 41.87648 2.73593 1497 ft 99 kts 223°
2026-05-05 17:53 41.87194 2.72861 1579 ft 108 kts 230°
2026-05-05 17:53 41.86726 2.72045 1619 ft 114 kts 229°
2026-05-05 17:53 41.86200 2.71210 1622 ft 118 kts 227°
2026-05-05 17:53 41.85664 2.70392 1712 ft 116 kts 227°
2026-05-05 17:54 41.85108 2.69612 1751 ft 117 kts 221°
2026-05-05 17:54 41.84477 2.68905 1769 ft 119 kts 217°
2026-05-05 17:54 41.83886 2.68132 1770 ft 121 kts 231°
2026-05-05 17:54 41.83396 2.67187 1757 ft 124 kts 234°
2026-05-05 17:55 41.82876 2.66284 1793 ft 122 kts 229°
2026-05-05 17:55 41.82322 2.65396 1760 ft 125 kts 230°
2026-05-05 17:55 41.81761 2.64496 1703 ft 128 kts 226°
2026-05-05 17:55 41.81175 2.63595 1684 ft 127 kts 235°
2026-05-05 17:56 41.80774 2.62582 1791 ft 120 kts 243°
2026-05-05 17:56 41.80476 2.61532 1858 ft 120 kts 251°
2026-05-05 17:56 41.80254 2.60467 1925 ft 120 kts 252°
2026-05-05 17:56 41.79876 2.59511 2025 ft 117 kts 223°
2026-05-05 17:57 41.79234 2.58762 1926 ft 127 kts 223°
2026-05-05 17:57 41.78607 2.57956 1840 ft 125 kts 225°
2026-05-05 17:57 41.78034 2.57044 1669 ft 129 kts 233°
2026-05-05 17:57 41.77533 2.56084 1623 ft 124 kts 238°
2026-05-05 17:58 41.77092 2.55113 1587 ft 117 kts 239°
2026-05-05 17:58 41.76701 2.54222 1737 ft 107 kts 239°
2026-05-05 17:58 41.76350 2.53426 2077 ft 89 kts 240°
2026-05-05 17:58 41.76065 2.52704 2290 ft 90 kts 240°
2026-05-05 17:59 41.75735 2.52015 2550 ft 81 kts 232°
2026-05-05 17:59 41.75335 2.51458 2736 ft 84 kts 223°
2026-05-05 17:59 41.74878 2.51035 3000 ft 77 kts 210°
2026-05-05 17:59 41.74390 2.50707 3221 ft 76 kts 200°
2026-05-05 18:00 41.73922 2.50272 3221 ft 101 kts 227°
2026-05-05 18:00 41.73539 2.49310 2879 ft 135 kts 240°
2026-05-05 18:00 41.73069 2.48106 2436 ft 147 kts 239°
2026-05-05 18:00 41.72548 2.46950 2215 ft 144 kts 238°
2026-05-05 18:01 41.72024 2.45851 2196 ft 136 kts 237°
2026-05-05 18:01 41.71643 2.45077 2142 ft 135 kts 237°
2026-05-05 18:01 41.71132 2.44008 2058 ft 136 kts 237°
2026-05-05 18:01 41.70579 2.42970 1930 ft 138 kts 232°
2026-05-05 18:02 41.69985 2.41952 1818 ft 139 kts 232°
2026-05-05 18:02 41.69399 2.40955 1738 ft 138 kts 231°
2026-05-05 18:02 41.68804 2.39970 1718 ft 134 kts 231°
2026-05-05 18:02 41.68229 2.39008 1720 ft 132 kts 231°
2026-05-05 18:03 41.67645 2.38053 1640 ft 136 kts 231°
2026-05-05 18:03 41.67056 2.37057 1591 ft 136 kts 231°
2026-05-05 18:03 41.66488 2.36095 1687 ft 125 kts 232°
2026-05-05 18:03 41.65956 2.35193 1718 ft 120 kts 231°
2026-05-05 18:04 41.65456 2.34372 1845 ft 110 kts 231°
2026-05-05 18:04 41.64975 2.33589 1943 ft 107 kts 230°
2026-05-05 18:04 41.64483 2.32824 2012 ft 108 kts 229°
2026-05-05 18:04 41.63984 2.32086 2125 ft 106 kts 228°
2026-05-05 18:05 41.63456 2.31352 2137 ft 113 kts 224°
2026-05-05 18:05 41.62883 2.30607 2120 ft 118 kts 227°
2026-05-05 18:05 41.62329 2.29801 2147 ft 118 kts 227°
2026-05-05 18:05 41.61767 2.28999 2153 ft 119 kts 228°
2026-05-05 18:06 41.61182 2.28208 2128 ft 122 kts 226°
2026-05-05 18:06 41.60779 2.27674 2105 ft 123 kts 223°
2026-05-05 18:06 41.59975 2.26537 1994 ft 127 kts 227°
2026-05-05 18:06 41.59410 2.25668 2044 ft 121 kts 229°
2026-05-05 18:07 41.58849 2.24840 2038 ft 120 kts 226°
2026-05-05 18:07 41.58274 2.24024 1981 ft 122 kts 224°
2026-05-05 18:07 41.57671 2.23204 1888 ft 127 kts 223°
2026-05-05 18:07 41.57035 2.22362 1812 ft 128 kts 224°
2026-05-05 18:08 41.56392 2.21538 1741 ft 129 kts 221°
2026-05-05 18:08 41.55720 2.20780 1705 ft 126 kts 220°
2026-05-05 18:08 41.55174 2.19891 1710 ft 123 kts 247°
2026-05-05 18:08 41.55038 2.18803 1701 ft 121 kts 267°
2026-05-05 18:09 41.54999 2.17658 1614 ft 126 kts 258°
2026-05-05 18:09 41.54716 2.16513 1459 ft 131 kts 250°
2026-05-05 18:09 41.54365 2.15399 1317 ft 128 kts 247°
2026-05-05 18:09 41.54034 2.14281 1009 ft 131 kts 250°
2026-05-05 18:10 41.53689 2.13249 995 ft 108 kts 235°
2026-05-05 18:10 41.53204 2.12601 996 ft 95 kts 221°
2026-05-05 18:10 41.52689 2.12018 998 ft 96 kts 219°
2026-05-05 18:10 41.52118 2.11619 1095 ft 91 kts 180°
2026-05-05 18:11 41.51658 2.12132 1083 ft 96 kts 110°
2026-05-05 18:11 41.51406 2.12931 1177 ft 93 kts 112°
2026-05-05 18:11 41.51182 2.13724 1268 ft 88 kts 110°
2026-05-05 18:11 41.50892 2.14392 1368 ft 81 kts 149°
2026-05-05 18:12 41.50420 2.14157 1310 ft 90 kts 256°
2026-05-05 18:12 41.50664 2.13295 1118 ft 110 kts 302°
2026-05-05 18:12 41.51061 2.12464 1060 ft 99 kts 301°
2026-05-05 18:12 41.51405 2.11756 808 ft 87 kts 305°
2026-05-05 18:13 41.51727 2.11148 552 ft 81 kts 306°
2026-05-05 18:13 41.52032 2.10609 474 ft 58 kts 306°
2026-05-05 18:13 41.52178 2.10326 478 ft 6 kts 288°
2026-05-05 18:13 41.52180 2.10265 475 ft 10 kts 270°
2026-05-05 18:14 41.52180 2.10215 473 ft 0 kts 236°
2026-05-05 18:14 41.52169 2.10204 473 ft 1 kts 195°
2026-05-05 18:14 41.52133 2.10227 473 ft 5 kts 130°
2026-05-05 18:14 41.52125 2.10240 473 ft 6 kts 122°
2026-05-05 18:15 41.52110 2.10265 473 ft 0 kts 134°
2026-05-05 18:15 41.52106 2.10278 473 ft 0 kts 72°
2026-05-05 18:15 41.52110 2.10288 473 ft 0 kts 43°
2026-05-05 18:15 41.52113 2.10291 473 ft 0 kts 32°